This demonstration page uses our WeatherBlox Daily Observations layout. Learn more.

Left ArrowRight Arrow

38.80484, -77.04692

Hourly Observations for April 11, 2016

Temp ( °F °C ) Dew Point ( °F °C ) Humidity (%) Winds ( mph kmh ) Pressure ( in mb ) Visibility ( mi km ) Precip ( " mm )
12:52 am 00:52 Cloudy 48 8.9 33 0.6 56 56 S 16 26 30.26 1025 10 16 0.00 0.00
1:52 am 01:52 Cloudy 49 9.4 31 -0.6 50 50 S 18 30 30.24 1024 10 16 0.00 0.00
2:52 am 02:52 Cloudy with Light Rain 49 9.4 31 -0.6 50 50 S 15 24 30.25 1024 10 16 0.00 0.03
3:52 am 03:52 Cloudy with Light Rain 48 8.9 31 -0.6 52 52 S 12 19 30.24 1024 10 16 0.00 0.03
4:52 am 04:52 Cloudy with Light Rain 47 8.3 33 0.6 59 59 S 14 22 30.22 1023 10 16 0.00 0.03
5:52 am 05:52 Cloudy with Light Rain 48 8.9 33 0.6 56 56 S 16 26 30.22 1023 10 16 0.00 0.03
6:52 am 06:52 Cloudy with Light Rain 47 8.3 35 1.7 63 63 S 16 26 30.22 1023 10 16 0.00 0.03
7:52 am 07:52 Cloudy 48 8.9 36 2.2 63 63 S 13 20 30.22 1023 10 16 0.00 0.03
8:52 am 08:52 Cloudy 49 9.4 38 3.3 66 66 S 12 19 30.20 1023 10 16 0.01 0.25
9:52 am 09:52 Cloudy 51 10.6 36 2.2 56 56 S 14 22 30.19 1023 10 16 0.00 0.00
10:52 am 10:52 Cloudy 54 12.2 37 2.8 53 53 S 16 26 30.18 1022 10 16 0.00 0.00
11:52 am 11:52 Mostly Cloudy 59 15 38 3.3 46 46 SSW 21 33 30.15 1021 10 16 0.00 0.00
12:52 pm 12:52 Mostly Cloudy 64 17.8 40 4.4 41 41 S 16 26 30.11 1020 10 16 0.00 0.00
1:52 pm 13:52 Partly Cloudy 68 20 44 6.7 42 42 S 17 28 30.09 1019 10 16 0.00 0.00
2:52 pm 14:52 Partly Cloudy 69 20.6 45 7.2 42 42 S 25 41 30.05 1018 10 16 0.00 0.00
3:52 pm 15:52 Partly Cloudy 72 22.2 46 7.8 40 40 SW 22 35 30.01 1016 10 16 0.00 0.00
4:52 pm 16:52 Partly Cloudy 73 22.8 47 8.3 40 40 S 23 37 30.00 1016 10 16 0.00 0.00
5:52 pm 17:52 Mostly Cloudy 73 22.8 46 7.8 38 38 SSW 16 26 29.98 1015 10 16 0.00 0.00
6:52 pm 18:52 Mostly Cloudy 67 19.4 48 8.9 51 51 S 16 26 29.96 1015 10 16 0.00 0.00
7:52 pm 19:52 Mostly Cloudy 70 21.1 48 8.9 46 46 S 16 26 29.95 1014 10 16 0.00 0.00
8:52 pm 20:52 Mostly Cloudy 68 20 49 9.4 51 51 SSW 12 19 29.98 1015 10 16 0.00 0.00
9:52 pm 21:52 Mostly Cloudy 69 20.6 48 8.9 47 47 S 20 31 29.96 1015 10 16 0.00 0.00
10:52 pm 22:52 Mostly Cloudy 66 18.9 49 9.4 54 54 S 14 22 29.95 1014 10 16 0.00 0.00
11:52 pm 23:52 Cloudy 67 19.4 49 9.4 53 53 SSW 14 22 29.96 1014 10 16 0.00 0.00

Powered by AerisWeather